This is the latest recevied weather packets stored in our database for station/object SA7BGG-5. If no packets are shown the sender has not sent any weather packets the latest 10 day(s).
| Time | Temp. | Humidity | Pressure | Rain* | Wind** | Luminosity | Snow |
|---|---|---|---|---|---|---|---|
| 1777282800 | 12.78° C | 40% | 1029 hPa | - | - | - | - |
| 1777282505 | 12.22° C | 42% | 1029 hPa | - | - | - | - |
| 1777282204 | 12.22° C | 42% | 1029 hPa | - | - | - | - |
| 1777281904 | 12.22° C | 41% | 1029 hPa | - | - | - | - |
| 1777281604 | 12.22° C | 41% | 1029 hPa | - | - | - | - |
| 1777281304 | 12.22° C | 43% | 1029 hPa | - | - | - | - |
| 1777281003 | 12.22° C | 43% | 1029 hPa | - | - | - | - |
| 1777280703 | 11.11° C | 47% | 1029 hPa | - | - | - | - |
| 1777280403 | 11.11° C | 47% | 1029 hPa | - | - | - | - |
| 1777280102 | 10.56° C | 48% | 1029 hPa | - | - | - | - |
| 1777279802 | 10.56° C | 48% | 1029 hPa | - | - | - | - |
| 1777279502 | 10° C | 49% | 1029 hPa | - | - | - | - |
| 1777279201 | 10° C | 49% | 1029 hPa | - | - | - | - |
| 1777278901 | 9.44° C | 48% | 1029 hPa | - | - | - | - |
| 1777278601 | 9.44° C | 48% | 1029 hPa | - | - | - | - |
| 1777278300 | 8.89° C | 50% | 1029 hPa | - | - | - | - |
| 1777278000 | 8.89° C | 50% | 1029 hPa | - | - | - | - |
| 1777277705 | 8.33° C | 51% | 1029 hPa | - | - | - | - |
| 1777277404 | 8.33° C | 51% | 1029 hPa | - | - | - | - |
| 1777277104 | 8.33° C | 54% | 1029 hPa | - | - | - | - |
| 1777276804 | 8.33° C | 54% | 1029 hPa | - | - | - | - |
| 1777276503 | 7.78° C | 56% | 1029 hPa | - | - | - | - |
| 1777276203 | 7.78° C | 56% | 1029 hPa | - | - | - | - |
| 1777275902 | 6.67° C | 59% | 1029 hPa | - | - | - | - |
| 1777275602 | 6.67° C | 59% | 1029 hPa | - | - | - | - |
* Rain since midnight (hover to see other rain measurements)
** Current wind speed in m/s (hover to see current wind gust speed)